Starlink 30812

operational
NORAD ID: 58168 Int'l Des: 2023-166 Owner: SPXS Country: US Constellation: starlink
LEOCIRCULAR

Starlink 30812について

説明を読み込み中...

リアルタイム位置

3D地球を読み込み中...

次回通過

高度履歴

Altitude vs Time

uPlot chart will show altitude changes over time

軌道要素

1 58168U 23166U 25351.66001646 .00002102 00000-0 83119-4 0 9992
2 58168 53.1600 240.3918 0001254 69.8368 290.2768 15.30179597120479
Epoch: Dec 17, 2025 • Age: 20 hours

現在のステータス

高度 475.6 km
速度 7.63 km/s
衛星直下点 2.33°N, 32.65°W
打ち上げ日 Oct 29, 2023
運用期間 2.1 years
タイプ internet

技術仕様

分類 Payload
質量 730.00 kg
乾燥質量 700.00 kg
総質量 730.00 kg
長さ 0.30 m
直径 4.10 m
スパン 29.00 m
形状 Box + pan
製造者 SPXS
バスタイプ Starlink V2M
フェーズステータス In Orbit
所有者/国 SPXS/US

大規模コンステレーション

Loading constellations...